Home   Weather   The Hague   Past weeks

Flag for Netherlands Past Weather in The Hague, Netherlands — Yesterday and Last 2 Weeks

Now
48 °F

Broken clouds.


Feels Like: 46 °F
Forecast: 44 / 51 °F
Wind: 6 mph from West

Location: Rotterdam Zestienhoven Airport

Current Time: Apr 27, 2017 at 1:18:56 pm

Latest Report: Apr 27, 2017 at 12:25 pm


Visibility: N/A

Pressure: 30.04 "Hg

Humidity: 62%

Dew Point: 36 °F

Location of The HagueLocation

Past Weather in The Hague — Graph

°F

The Hague Temperature Yesterday

Maximum temperature yesterday: 52 °F (at 2:55 pm)
Minimum temperature yesterday: 36 °F (at 5:55 am)
Average temperature yesterday: 43 °F

High & Low Weather Summary for the Past Weeks

 TemperatureHumidityPressure
High55 °F (Apr 21, 10:55 am)100% (Apr 20, 12:55 am)30.63 "Hg (Apr 20, 12:55 am)
Low28 °F (Apr 20, 4:55 am)43% (Apr 20, 12:55 pm)29.71 "Hg (Apr 25, 2:25 am)
Average45 °F75%30.20 "Hg
* Reported Apr 19 8:55 am — Apr 27 11:55 am, The Hague, Weather by CustomWeather, © 2017

Note: Actual official high and low records may vary slightly from our data, if they occured in-between our weather recording intervals... More about our weather records

Advertising

The Hague Weather History for the Previous 24 Hours

Scroll right to see more
 ConditionsComfort  
Time TempWeatherWind HumidityBarometerVisibility
11:55 am
Thu, Apr 27
45 °FBroken clouds.9 mph71%30.04 "HgN/A
11:25 am48 °FPassing clouds.6 mph66%30.04 "HgN/A
10:55 am46 °FBroken clouds.3 mph71%30.04 "HgN/A
10:25 am45 °FDrizzle. Cloudy.6 mph76%30.04 "HgN/A
9:55 am46 °FPassing clouds.5 mph71%30.04 "HgN/A
8:55 am41 °FPartly sunny.2 mph87%30.04 "HgN/A
8:25 am41 °FBroken clouds.2 mph93%30.04 "HgN/A
7:55 am39 °FClear.3 mph93%30.04 "HgN/A
7:25 am39 °FMostly cloudy.7 mph87%30.04 "HgN/A
6:55 am37 °FScattered clouds.3 mph93%30.01 "HgN/A
6:25 am37 °FBroken clouds.3 mph93%30.01 "HgN/A
5:55 am36 °FPartly cloudy.2 mph100%30.01 "HgN/A
5:25 am36 °FPassing clouds.3 mph93%30.01 "HgN/A
4:55 am34 °FPassing clouds.2 mph93%30.01 "HgN/A
4:25 am36 °FChilly.1 mph93%30.01 "HgN/A
3:25 am36 °FPassing clouds.5 mph87%30.01 "HgN/A
2:55 am36 °FPassing clouds.2 mph93%30.01 "HgN/A
2:25 am37 °FChilly.2 mph93%30.01 "HgN/A
1:55 am39 °FSprinkles. Partly cloudy.16 mph81%30.04 "Hg4 mi
1:25 am37 °FPassing clouds.1 mph87%30.04 "HgN/A
12:55 am37 °FClear.1 mph87%30.01 "HgN/A
12:25 am37 °FPartly cloudy.2 mph93%30.01 "HgN/A
11:55 pm
Wed, Apr 26
36 °FPassing clouds.2 mph93%30.01 "HgN/A
11:25 pm37 °FChilly.2 mph87%30.01 "HgN/A
10:55 pm39 °FPassing clouds.3 mph81%30.01 "HgN/A
10:25 pm41 °FPassing clouds.3 mph76%30.01 "HgN/A
9:55 pm41 °FPassing clouds.5 mph76%30.01 "HgN/A
9:25 pm43 °FClear.7 mph71%29.98 "HgN/A
8:55 pm45 °FClear.8 mph66%29.98 "HgN/A
7:55 pm46 °FCool.10 mph66%29.98 "HgN/A
7:25 pm46 °FPassing clouds.10 mph66%29.95 "HgN/A
6:55 pm46 °FPassing clouds.16 mph66%29.95 "HgN/A
6:25 pm46 °FPassing clouds.14 mph66%29.95 "HgN/A
5:55 pm48 °FScattered clouds.13 mph62%29.95 "HgN/A
5:25 pm50 °FScattered clouds.12 mph58%29.95 "HgN/A
4:55 pm50 °FPassing clouds.10 mph58%29.95 "HgN/A
4:25 pm50 °FPassing clouds.12 mph58%29.95 "HgN/A
3:55 pm48 °FScattered clouds.8 mph58%29.95 "HgN/A
3:25 pm48 °FClear.10 mph58%29.95 "HgN/A
2:55 pm52 °FScattered clouds.10 mph58%29.92 "HgN/A
1:55 pm48 °FClear.12 mph62%29.92 "HgN/A
1:25 pm50 °FPassing clouds.10 mph62%29.92 "HgN/A
Weather by CustomWeather, © 2017

See weather overviewHow to use our weather pages